| time (UTC) | temp C | wind direction | speed KPH | gust KPH | rain 1hr cm | rain 24hr cm | rain mn cm | humidity % | barometer mb |
| 20260509031558 | 10 | 0 | 0.0 | 0.0 | 0.00 | 0.00 | 0.00 | 77 | 1007.2 |
| 20260509024541 | 11 | 0 | 0.0 | 0.0 | 0.00 | 0.00 | 0.00 | 73 | 1007.4 |
| 20260509023048 | 12 | 0 | 1.6 | 14.5 | 0.00 | 0.00 | 0.00 | 73 | 1007.5 |
| 20260509021547 | 11 | 242 | 1.6 | 3.2 | 0.00 | 0.00 | 0.00 | 75 | 1007.4 |
| 20260509020050 | 12 | 0 | 0.0 | 1.6 | 0.00 | 0.00 | 0.00 | 71 | 1007.1 |
| 20260509014547 | 12 | 0 | 0.0 | 1.6 | 0.00 | 0.00 | 0.00 | 70 | 1007.0 |
| 20260509013048 | 12 | 0 | 0.0 | 1.6 | 0.00 | 0.00 | 0.00 | 67 | 1006.6 |
| 20260509011550 | 13 | 0 | 0.0 | 4.8 | 0.00 | 0.00 | 0.00 | 65 | 1006.4 |
| 20260509010047 | 13 | 293 | 0.0 | 1.6 | 0.00 | 0.00 | 0.00 | 59 | 1006.4 |
| 20260509004555 | 14 | 91 | 0.0 | 3.2 | 0.00 | 0.00 | 0.00 | 53 | 1006.2 |
| 20260509003059 | 15 | 0 | 0.0 | 1.6 | 0.00 | 0.00 | 0.00 | 42 | 1006.0 |
| 20260509001543 | 16 | 253 | 3.2 | 8.0 | 0.00 | 0.00 | 0.00 | 39 | 1006.0 |
| 20260509000049 | 17 | 233 | 3.2 | 9.7 | 0.00 | 0.00 | 0.00 | 38 | 1006.0 |
| 20260508234548 | 17 | 252 | 3.2 | 12.9 | 0.00 | 0.00 | 0.00 | 36 | 1006.0 |
| 20260508233047 | 17 | 259 | 1.6 | 9.7 | 0.00 | 0.00 | 0.00 | 38 | 1006.0 |
| 20260508231545 | 17 | 229 | 3.2 | 9.7 | 0.00 | 0.00 | 0.00 | 38 | 1006.0 |
| 20260508230046 | 18 | 272 | 1.6 | 9.7 | 0.00 | 0.00 | 0.00 | 37 | 1006.1 |
| 20260508224611 | 17 | 233 | 3.2 | 14.5 | 0.00 | 0.00 | 0.00 | 37 | 1006.0 |
| 20260508223053 | 18 | 229 | 6.4 | 19.3 | 0.00 | 0.00 | 0.00 | 35 | 1006.1 |
| 20260508221547 | 18 | 244 | 4.8 | 14.5 | 0.00 | 0.00 | 0.00 | 37 | 1006.3 |
| 20260508220055 | 18 | 233 | 4.8 | 8.0 | 0.00 | 0.00 | 0.00 | 36 | 1006.2 |
| 20260508214543 | 17 | 237 | 3.2 | 14.5 | 0.00 | 0.00 | 0.00 | 39 | 1006.4 |
| 20260508213048 | 18 | 121 | 3.2 | 11.3 | 0.00 | 0.00 | 0.00 | 36 | 1006.6 |
| 20260508211555 | 18 | 220 | 6.4 | 12.9 | 0.00 | 0.00 | 0.00 | 34 | 1006.6 |
| 20260508210055 | 17 | 275 | 8.0 | 22.5 | 0.00 | 0.00 | 0.00 | 36 | 1006.7 |
| 20260508204551 | 17 | 248 | 6.4 | 19.3 | 0.00 | 0.00 | 0.00 | 36 | 1006.9 |
| 20260508203049 | 17 | 252 | 3.2 | 12.9 | 0.00 | 0.00 | 0.00 | 37 | 1007.0 |
| 20260508201544 | 17 | 132 | 3.2 | 14.5 | 0.00 | 0.00 | 0.00 | 39 | 1007.2 |
| 20260508200052 | 17 | 274 | 8.0 | 20.9 | 0.00 | 0.00 | 0.00 | 36 | 1007.5 |
| 20260508194548 | 17 | 251 | 6.4 | 19.3 | 0.00 | 0.00 | 0.00 | 36 | 1007.5 |
| 20260508193048 | 17 | 231 | 3.2 | 9.7 | 0.00 | 0.00 | 0.00 | 42 | 1007.8 |
| 20260508191550 | 17 | 200 | 4.8 | 20.9 | 0.00 | 0.00 | 0.00 | 37 | 1008.4 |
| 20260508190046 | 17 | 123 | 3.2 | 12.9 | 0.00 | 0.00 | 0.00 | 39 | 1008.5 |
| 20260508184551 | 16 | 325 | 6.4 | 12.9 | 0.00 | 0.00 | 0.00 | 35 | 1008.6 |
| 20260508183049 | 17 | 256 | 4.8 | 12.9 | 0.00 | 0.00 | 0.00 | 39 | 1008.8 |
| 20260508181547 | 16 | 319 | 1.6 | 11.3 | 0.00 | 0.00 | 0.00 | 44 | 1008.8 |
| 20260508180048 | 16 | 246 | 1.6 | 14.5 | 0.00 | 0.00 | 0.00 | 42 | 1009.0 |
| 20260508174558 | 15 | 114 | 3.2 | 16.1 | 0.00 | 0.00 | 0.00 | 41 | 1009.4 |
| 20260508173051 | 15 | 286 | 4.8 | 11.3 | 0.00 | 0.00 | 0.00 | 38 | 1009.7 |
| 20260508171549 | 14 | 240 | 3.2 | 14.5 | 0.00 | 0.00 | 0.00 | 39 | 1009.9 |
| 20260508170049 | 14 | 245 | 6.4 | 19.3 | 0.00 | 0.00 | 0.00 | 41 | 1010.3 |
| 20260508164553 | 14 | 240 | 8.0 | 16.1 | 0.00 | 0.00 | 0.00 | 41 | 1010.3 |
| 20260508163046 | 14 | 276 | 3.2 | 17.7 | 0.00 | 0.00 | 0.00 | 42 | 1010.6 |
| 20260508161558 | 14 | 266 | 3.2 | 11.3 | 0.00 | 0.00 | 0.00 | 44 | 1010.6 |
| 20260508160051 | 13 | 0 | 4.8 | 11.3 | 0.00 | 0.00 | 0.00 | 45 | 1010.8 |
| 20260508154607 | 13 | 233 | 6.4 | 12.9 | 0.00 | 0.00 | 0.00 | 46 | 1010.8 |
| 20260508153047 | 13 | 233 | 4.8 | 9.7 | 0.00 | 0.00 | 0.00 | 51 | 1010.8 |
| 20260508151553 | 13 | 263 | 3.2 | 9.7 | 0.00 | 0.00 | 0.00 | 47 | 1011.1 |
| 20260508150058 | 13 | 247 | 1.6 | 8.0 | 0.00 | 0.00 | 0.00 | 47 | 1011.1 |
| 20260508144547 | 12 | 234 | 0.0 | 3.2 | 0.00 | 0.00 | 0.00 | 54 | 1011.3 |
| 20260508143104 | 12 | 113 | 1.6 | 4.8 | 0.00 | 0.00 | 0.00 | 52 | 1011.3 |
| 20260508141545 | 12 | 0 | 0.0 | 1.6 | 0.00 | 0.00 | 0.00 | 52 | 1011.5 |
| 20260508140104 | 12 | 15 | 0.0 | 1.6 | 0.00 | 0.00 | 0.00 | 58 | 1011.6 |
| 20260508134548 | 11 | 69 | 0.0 | 3.2 | 0.00 | 0.00 | 0.00 | 65 | 1011.7 |
| 20260508133057 | 10 | 0 | 0.0 | 3.2 | 0.00 | 0.00 | 0.00 | 71 | 1011.7 |
| 20260508131547 | 8 | 0 | 1.6 | 3.2 | 0.00 | 0.00 | 0.00 | 75 | 1011.7 |
| 20260508130044 | 7 | 127 | 0.0 | 3.2 | 0.00 | 0.00 | 0.00 | 82 | 1011.8 |
| 20260508124549 | 7 | 0 | 0.0 | 4.8 | 0.00 | 0.00 | 0.00 | 85 | 1011.5 |
| 20260508123048 | 6 | 139 | 1.6 | 4.8 | 0.00 | 0.00 | 0.00 | 88 | 1011.5 |
| 20260508121548 | 5 | 113 | 0.0 | 1.6 | 0.00 | 0.00 | 0.00 | 92 | 1011.4 |
| 20260508120110 | 4 | 92 | 0.0 | 3.2 | 0.00 | 0.00 | 0.00 | 93 | 1011.3 |
| 20260508114546 | 3 | 103 | 1.6 | 3.2 | 0.00 | 0.00 | 0.00 | 94 | 1011.1 |
| 20260508113052 | 3 | 109 | 0.0 | 3.2 | 0.00 | 0.00 | 0.00 | 94 | 1011.0 |
| 20260508111556 | 3 | 0 | 0.0 | 1.6 | 0.00 | 0.00 | 0.00 | 94 | 1010.8 |
| 20260508110050 | 2 | 0 | 0.0 | 0.0 | 0.00 | 0.00 | 0.00 | 93 | 1010.7 |
| 20260508104547 | 2 | 0 | 0.0 | 0.0 | 0.00 | 0.00 | 0.00 | 92 | 1010.7 |
| 20260508103051 | 2 | 0 | 0.0 | 0.0 | 0.00 | 0.00 | 0.00 | 92 | 1010.5 |
| 20260508101547 | 1 | 0 | 0.0 | 0.0 | 0.00 | 0.00 | 0.00 | 91 | 1010.5 |
| 20260508100051 | 1 | 0 | 0.0 | 0.0 | 0.00 | 0.00 | 0.00 | 91 | 1010.6 |
| 20260508094550 | 1 | 0 | 0.0 | 0.0 | 0.00 | 0.00 | 0.00 | 91 | 1010.5 |
| 20260508093050 | 2 | 0 | 0.0 | 0.0 | 0.00 | 0.00 | 0.00 | 90 | 1010.6 |
| 20260508091600 | 2 | 0 | 0.0 | 0.0 | 0.00 | 0.00 | 0.00 | 90 | 1010.7 |
| 20260508090050 | 2 | 0 | 0.0 | 0.0 | 0.00 | 0.00 | 0.00 | 89 | 1010.7 |
| 20260508084556 | 2 | 0 | 0.0 | 0.0 | 0.00 | 0.00 | 0.00 | 89 | 1010.7 |
| 20260508083103 | 2 | 0 | 0.0 | 0.0 | 0.00 | 0.00 | 0.00 | 88 | 1010.7 |
| 20260508081551 | 3 | 0 | 0.0 | 0.0 | 0.00 | 0.00 | 0.00 | 88 | 1010.8 |
| 20260508080104 | 3 | 0 | 0.0 | 0.0 | 0.00 | 0.00 | 0.00 | 87 | 1010.8 |
| 20260508074549 | 4 | 0 | 0.0 | 0.0 | 0.00 | 0.00 | 0.00 | 88 | 1010.7 |
| 20260508073055 | 4 | 0 | 0.0 | 0.0 | 0.00 | 0.00 | 0.00 | 88 | 1010.8 |
| 20260508071545 | 4 | 0 | 0.0 | 0.0 | 0.00 | 0.00 | 0.00 | 87 | 1011.0 |
| 20260508070043 | 4 | 0 | 0.0 | 0.0 | 0.00 | 0.00 | 0.00 | 87 | 1010.9 |
| 20260508064557 | 5 | 0 | 0.0 | 0.0 | 0.00 | 0.00 | 0.00 | 87 | 1010.9 |
| 20260508063052 | 4 | 0 | 0.0 | 0.0 | 0.00 | 0.00 | 0.00 | 87 | 1010.9 |
| 20260508061548 | 4 | 0 | 0.0 | 0.0 | 0.00 | 0.00 | 0.00 | 86 | 1010.9 |
| 20260508060047 | 4 | 0 | 0.0 | 0.0 | 0.00 | 0.00 | 0.00 | 85 | 1010.9 |
| 20260508054549 | 4 | 0 | 0.0 | 0.0 | 0.00 | 0.00 | 0.00 | 83 | 1011.1 |
| 20260508053052 | 4 | 0 | 0.0 | 0.0 | 0.00 | 0.00 | 0.00 | 81 | 1011.0 |
| 20260508051547 | 5 | 0 | 0.0 | 1.6 | 0.00 | 0.00 | 0.00 | 79 | 1011.2 |
| 20260508050103 | 5 | 0 | 0.0 | 1.6 | 0.00 | 0.00 | 0.00 | 75 | 1011.1 |
| 20260508044549 | 6 | 0 | 0.0 | 1.6 | 0.00 | 0.00 | 0.00 | 73 | 1011.2 |
| 20260508043051 | 7 | 236 | 1.6 | 3.2 | 0.00 | 0.00 | 0.00 | 71 | 1011.2 |
| 20260508041545 | 8 | 0 | 0.0 | 6.4 | 0.00 | 0.00 | 0.00 | 65 | 1011.3 |
| 20260508040053 | 8 | 270 | 3.2 | 6.4 | 0.00 | 0.00 | 0.00 | 66 | 1011.4 |
| 20260508034550 | 8 | 0 | 0.0 | 3.2 | 0.00 | 0.00 | 0.00 | 64 | 1010.9 |
| 20260508033050 | 8 | 0 | 0.0 | 3.2 | 0.00 | 0.00 | 0.00 | 62 | 1010.9 |